Location: Hopkins Observatory
(42.6965°N, 73.1843°W)
Time: 15:19:36
(UTC-05:00)

Amateur Radio Satellites - All Passes

Search period start: 22 January 2017 14:49
Search period end: 23 January 2017 14:49
Location: Hopkins Observatory, 42.6965°N, 73.1843°W

Satellite Date Start Highest point End Downlink Frequencies (MHz)
Time Altitude Azimuth
AO-7 22 Jan 14:49:48 14:58:07 71° 254° (WSW) 15:06:32 29.400- 29.500
AIST 1 22 Jan 15:01:07 15:02:42 12° 293° (WNW) 15:04:18
BEESAT 3 22 Jan 15:12:41 15:16:21 41° 117° (ESE) 15:20:05 437.485
Cosmos 2504 22 Jan 15:13:47 15:22:17 60° 282° (WNW) 15:30:18 435.465 / 435.565
Cosmos 2491 22 Jan 15:24:14 15:27:22 12° 288° (WNW) 15:30:30 435.465 / 435.565
AO-85 22 Jan 15:26:11 15:27:12 11° 325° (NW) 15:28:13 145.980
YUBILEINY 22 Jan 15:27:20 15:34:58 32° 292° (WNW) 15:42:42 435.215
ITUPSAT 1 22 Jan 15:30:37 15:35:04 38° 291° (WNW) 15:39:30 437.325
O/OREOS (USA 219) 22 Jan 15:32:44 15:37:15 88° 250° (WSW) 15:41:47 437.305
CUTE-I 22 Jan 15:34:52 15:35:52 10° 55° (NE) 15:36:52 437.470
DANDE 22 Jan 15:36:49 15:44:08 42° 270° (W) 15:51:45 436.750
MOZHAYETS 4 22 Jan 15:38:23 15:43:04 89° 296° (WNW) 15:47:43
ITAMSAT 1 22 Jan 15:45:51 15:48:24 14° 270° (W) 15:50:57 435.822/435.867
M-CUBED/EXP-1 PRIME 22 Jan 15:56:40 15:59:44 34° 103° (ESE) 16:02:43 437.505
KKS-1 22 Jan 16:01:25 16:05:43 48° 100° (E) 16:10:00 437.445
BEESAT 2 22 Jan 16:02:17 16:06:10 63° 121° (ESE) 16:10:08 435.950
BEESAT 22 Jan 16:04:32 16:07:53 19° 297° (WNW) 16:11:13 436.000
SWISSCUBE 22 Jan 16:06:41 16:09:42 17° 298° (WNW) 16:12:44 437.505
HORYU 2 22 Jan 16:09:33 16:13:47 48° 71° (ENE) 16:18:03 437.375
GOMX 1 22 Jan 16:15:05 16:20:15 51° 73° (ENE) 16:25:11 467.674
Cubesat XI-IV 22 Jan 16:15:08 16:19:18 24° 63° (ENE) 16:23:29 437.490
NOAA 15 22 Jan 16:15:31 16:19:48 26° 64° (ENE) 16:24:07 137.62
BRITE-PL 22 Jan 16:22:35 16:28:14 63° 260° (W) 16:33:47 437.365/2234.400
SO-50 22 Jan 16:29:04 16:33:18 41° 243° (WSW) 16:37:30 436.795
CUBESAT XI-V 22 Jan 16:30:25 16:35:00 50° 99° (E) 16:39:30 437.345
AUBIESAT-1 22 Jan 16:31:05 16:34:26 82° 111° (ESE) 16:37:43 437.475
NOAA 18 22 Jan 16:38:29 16:42:44 23° 62° (ENE) 16:46:58 137.9125
DOVE 4 22 Jan 16:42:52 16:47:22 37° 71° (ENE) 16:51:39 437.250
STARS 22 Jan 16:47:58 16:52:21 71° 102° (ESE) 16:56:42 437.465
AO-7 22 Jan 16:48:46 16:52:18 13° 273° (W) 16:55:52 29.400- 29.500
BEESAT 3 22 Jan 16:51:08 16:54:09 21° 316° (NW) 16:57:12 437.485
CUTE-I 22 Jan 17:09:41 17:14:57 72° 73° (ENE) 17:20:16 437.470
Cosmos 2504 22 Jan 17:14:42 17:17:26 12° 303° (WNW) 17:20:09 435.465 / 435.565
LilacSat-2 22 Jan 17:16:29 17:20:15 88° 259° (W) 17:24:04 437.200
MOZHAYETS 4 22 Jan 17:18:24 17:19:29 11° 301° (WNW) 17:20:33
CANX-2 22 Jan 17:28:17 17:30:52 16° 64° (ENE) 17:33:27 2200.000
Cosmos 2499 22 Jan 17:31:18 17:35:56 16° 79° (ENE) 17:40:24 435.465 / 435.565
M-CUBED/EXP-1 PRIME 22 Jan 17:32:12 17:33:57 14° 301° (WNW) 17:35:40 437.505
SEEDS 22 Jan 17:35:51 17:36:59 11° 61° (ENE) 17:38:07 437.485
KKS-1 22 Jan 17:38:59 17:41:54 17° 297° (WNW) 17:44:48 437.445
BEESAT 2 22 Jan 17:41:47 17:44:21 16° 319° (NW) 17:46:57 435.950
HO-68 22 Jan 17:44:15 17:50:49 40° 63° (ENE) 17:57:24 435.675
HORYU 2 22 Jan 17:47:52 17:50:36 16° 268° (W) 17:53:21 437.375
Cubesat XI-IV 22 Jan 17:53:57 17:59:03 47° 261° (W) 18:04:12 437.490
NOAA 15 22 Jan 17:54:17 17:59:19 44° 261° (W) 18:04:24 137.62
CINEMA 3 22 Jan 17:54:20 17:58:29 44° 73° (ENE) 18:02:32 145.822/145.860
GOMX 1 22 Jan 17:54:30 17:58:30 21° 267° (W) 18:02:24 467.674
CUBESAT XI-V 22 Jan 18:08:45 18:11:58 19° 296° (WNW) 18:15:11 437.345
NOAA 18 22 Jan 18:17:40 18:23:02 52° 259° (W) 18:28:23 137.9125
GONETS M04 22 Jan 18:18:25 18:25:36 30° 82° (E) 18:32:50
DOVE 4 22 Jan 18:21:06 18:25:06 24° 265° (W) 18:28:58 437.250
AIST 2 22 Jan 18:21:39 18:25:25 37° 117° (ESE) 18:29:18 435.215
STARS 22 Jan 18:26:17 18:28:07 12° 299° (WNW) 18:29:56 437.465
CUTE 1.7 + AOD 2 22 Jan 18:32:16 18:36:28 64° 74° (ENE) 18:40:43 437.475
CUBEBUG 2 22 Jan 18:33:14 18:36:43 27° 69° (ENE) 18:40:14 437.445
FUNcube-1 22 Jan 18:46:32 18:48:37 14° 63° (ENE) 18:50:41 145.935
CUTE-I 22 Jan 18:52:37 18:55:32 15° 270° (W) 18:58:27 437.470
UWE-3 22 Jan 18:56:15 18:59:51 30° 69° (ENE) 19:03:30 435.000/436.395/437.385
CANX-2 22 Jan 19:02:10 19:06:18 50° 261° (W) 19:10:29 2200.000
SEEDS 22 Jan 19:07:49 19:12:03 76° 259° (W) 19:16:19 437.485
COMPASS 1 22 Jan 19:08:26 19:12:36 72° 76° (ENE) 19:16:49 437.405
ZACube-1 22 Jan 19:09:33 19:12:57 25° 68° (ENE) 19:16:24 437.345
STRAND 1 22 Jan 19:14:05 19:19:14 68° 103° (ESE) 19:24:21 437.568
AAUSAT CUBESAT 2 22 Jan 19:17:09 19:21:18 69° 75° (ENE) 19:25:29 437.432
Cosmos 2499 22 Jan 19:19:36 19:28:01 87° 96° (E) 19:35:48 435.465 / 435.565
HO-68 22 Jan 19:31:43 19:38:28 42° 262° (W) 19:45:15 435.675
CINEMA 3 22 Jan 19:33:05 19:35:50 16° 268° (W) 19:38:33 145.822/145.860
Oscar 11 22 Jan 19:40:22 19:44:30 48° 72° (ENE) 19:48:41 145.826/435.025
AIST 2 22 Jan 20:00:34 20:04:00 25° 315° (NW) 20:07:29 435.215
ISS 22 Jan 20:01:58 20:03:22 12° 131° (SE) 20:04:46 145.825
CUBEBUG 2 22 Jan 20:09:51 20:13:18 25° 265° (W) 20:16:46 437.445
CUTE 1.7 + AOD 2 22 Jan 20:11:19 20:12:44 11° 271° (W) 20:14:09 437.475
DELFI C3 22 Jan 20:12:25 20:16:03 35° 71° (ENE) 20:19:44 145.870
GONETS M04 22 Jan 20:13:15 20:21:48 61° 282° (WNW) 20:30:31
FUNcube-1 22 Jan 20:20:20 20:24:22 55° 260° (W) 20:28:29 145.935
AO-85 22 Jan 20:32:38 20:35:18 17° 41° (NE) 20:37:56 145.980
UWE-3 22 Jan 20:33:04 20:36:21 22° 266° (W) 20:39:38 435.000/436.395/437.385
HUMSAT D 22 Jan 20:33:26 20:37:08 33° 70° (ENE) 20:40:53 437.325/437.525
PRISM 22 Jan 20:37:21 20:40:46 25° 96° (E) 20:44:08 437.425
ZACube-1 22 Jan 20:45:39 20:49:10 27° 265° (W) 20:52:44 437.345
STRAND 1 22 Jan 20:54:39 20:57:51 17° 299° (WNW) 21:01:03 437.568
RS-15 22 Jan 20:56:15 21:03:11 18° 96° (E) 21:10:14 29.354- 29.394
AAUSAT CUBESAT 2 22 Jan 20:56:37 20:57:13 10° 271° (W) 20:57:50 437.432
Cosmos 2499 22 Jan 21:16:27 21:22:03 20° 296° (WNW) 21:27:27 435.465 / 435.565
Oscar 11 22 Jan 21:18:17 21:20:54 16° 269° (W) 21:23:33 145.826/435.025
JAS-2 22 Jan 21:35:53 21:41:24 22° 90° (E) 21:47:08 435.910
ISS 22 Jan 21:36:09 21:39:24 82° 324° (NW) 21:42:41 145.825
AISAT 22 Jan 21:38:14 21:38:41 10° 59° (ENE) 21:39:09 437.250
UNISAT 6 22 Jan 21:47:19 21:51:39 49° 100° (E) 21:56:05 437.425
DELFI C3 22 Jan 21:48:07 21:50:57 19° 267° (W) 21:53:50 145.870
BY70-1 22 Jan 21:51:29 21:54:30 59° 75° (ENE) 21:57:45 436.1900
TIGRISAT 22 Jan 21:59:46 22:04:12 63° 101° (ESE) 22:08:43 435.000
ESTCUBE 1 22 Jan 22:07:08 22:11:30 50° 72° (ENE) 22:15:55 437.505/2401.250
VELOX 1 22 Jan 22:08:22 22:11:35 20° 65° (ENE) 22:14:49 145.980
HUMSAT D 22 Jan 22:09:44 22:12:49 20° 267° (W) 22:15:57 437.325/437.525
AO-85 22 Jan 22:12:11 22:16:00 53° 241° (WSW) 22:19:48 145.980
PRISM 22 Jan 22:12:31 22:16:00 27° 292° (WNW) 22:19:28 437.425
ANTELSAT 22 Jan 22:15:41 22:20:10 84° 284° (WNW) 22:24:44 437.575/2403.000
GONETS M04 22 Jan 22:17:30 22:20:49 12° 306° (NW) 22:24:09
SPROUT 22 Jan 22:17:48 22:20:35 17° 65° (ENE) 22:23:24 437.525
UKube-1 22 Jan 22:27:34 22:28:56 11° 60° (ENE) 22:30:20 .
DX 1 22 Jan 22:32:05 22:34:57 17° 64° (ENE) 22:37:50 434.975-435.025
QB50P1 22 Jan 22:43:23 22:46:23 19° 93° (E) 22:49:22 145.935-145.965
CUBEBUG 1 22 Jan 22:46:31 22:50:55 77° 75° (ENE) 22:55:19 437.445
POLYITAN 1 22 Jan 22:48:12 22:51:28 21° 94° (E) 22:54:43 437.675
QB50P2 22 Jan 22:49:26 22:52:51 23° 94° (E) 22:56:16 145.880/145.840
50 SAT 22 Jan 22:54:53 22:58:14 39° 72° (ENE) 23:01:36 437.505
RS-15 22 Jan 23:01:35 23:13:21 74° 117° (ESE) 23:25:38 29.354- 29.394
PCSat 22 Jan 23:06:40 23:11:11 28° 108° (ESE) 23:15:42 145.827
POPSAT HIP 1 22 Jan 23:09:54 23:13:47 35° 97° (E) 23:17:40 437.405
AISAT 22 Jan 23:09:59 23:14:26 90° 244° (WSW) 23:18:54 437.250
ISS 22 Jan 23:13:41 23:16:16 21° 345° (NNW) 23:18:52 145.825
DUCHIFAT 1 22 Jan 23:17:17 23:21:11 36° 98° (E) 23:25:04 145.980
JAS-2 22 Jan 23:19:38 23:26:55 78° 286° (WNW) 23:34:43 435.910
NANOSAT C BR1 22 Jan 23:24:08 23:28:14 48° 100° (E) 23:32:19 145.865
UNISAT 6 22 Jan 23:25:03 23:28:01 18° 296° (WNW) 23:31:00 437.425
AIST 1 22 Jan 23:27:27 23:30:19 17° 70° (ENE) 23:33:10
BEESAT 3 22 Jan 23:28:45 23:32:25 33° 49° (NE) 23:36:04 437.485
TISAT 1 22 Jan 23:36:09 23:38:59 18° 65° (ENE) 23:41:49 437.305
TIGRISAT 22 Jan 23:38:02 23:40:24 14° 297° (WNW) 23:42:48 435.000
YUBILEINY 22 Jan 23:38:42 23:46:16 31° 67° (ENE) 23:53:46 435.215
BUGSAT 1 22 Jan 23:41:17 23:44:34 23° 95° (E) 23:47:50 437.445
VELOX 1 22 Jan 23:43:32 23:47:45 42° 261° (W) 23:51:58 145.980
ESTCUBE 1 22 Jan 23:45:42 23:48:34 17° 268° (W) 23:51:29 437.505/2401.250
SPROUT 22 Jan 23:52:06 23:56:10 44° 261° (W) 00:00:15 437.525
UKube-1 23 Jan 00:00:02 00:04:21 77° 257° (WSW) 00:08:42 .
DX 1 23 Jan 00:06:33 00:10:46 47° 260° (W) 00:15:01 434.975-435.025
QB50P1 23 Jan 00:18:22 00:22:17 38° 289° (WNW) 00:26:12 145.935-145.965
BEESAT 2 23 Jan 00:19:19 00:23:15 47° 52° (NE) 00:27:09 435.950
POLYITAN 1 23 Jan 00:23:29 00:27:19 34° 290° (WNW) 00:31:10 437.675
QB50P2 23 Jan 00:24:56 00:28:39 31° 291° (WNW) 00:32:23 145.880/145.840
Gurwin Techsat 1B 23 Jan 00:25:52 00:27:18 11° 88° (E) 00:28:44 435.225
50 SAT 23 Jan 00:29:54 00:31:37 13° 268° (W) 00:33:21 437.505
Cosmos 2491 23 Jan 00:30:30 00:37:40 30° 82° (E) 00:44:51 435.465 / 435.565
PHONESAT 2.4 23 Jan 00:40:59 00:42:42 19° 161° (SSE) 00:44:26 2401.200-2431.200
POPSAT HIP 1 23 Jan 00:46:10 00:49:21 21° 294° (WNW) 00:52:32 437.405
PCSat 23 Jan 00:49:09 00:54:20 45° 307° (NW) 00:59:33 145.827
ISS 23 Jan 00:51:19 00:53:36 17° 6° (N) 00:55:52 145.825
DUCHIFAT 1 23 Jan 00:53:32 00:56:37 20° 294° (WNW) 00:59:43 145.980
ITUPSAT 1 23 Jan 01:00:36 01:04:45 31° 67° (ENE) 01:08:56 437.325
NANOSAT C BR1 23 Jan 01:00:59 01:03:34 16° 296° (WNW) 01:06:10 145.865
AIST 1 23 Jan 01:04:06 01:08:06 39° 268° (W) 01:12:03
Cosmos 2504 23 Jan 01:05:54 01:13:04 51° 76° (ENE) 01:19:59 435.465 / 435.565
JAS-2 23 Jan 01:06:31 01:10:58 18° 304° (WNW) 01:15:36 435.910
BEESAT 3 23 Jan 01:06:38 01:09:53 24° 246° (WSW) 01:13:07 437.485
MOZHAYETS 4 23 Jan 01:07:31 01:08:46 11° 59° (ENE) 01:10:01
TISAT 1 23 Jan 01:10:22 01:14:19 41° 261° (W) 01:18:16 437.305
RS-15 23 Jan 01:15:41 01:26:56 43° 324° (NW) 01:38:33 29.354- 29.394
BUGSAT 1 23 Jan 01:16:27 01:19:54 28° 291° (WNW) 01:23:24 437.445
Oscar 19 23 Jan 01:26:18 01:31:30 78° 103° (ESE) 01:36:38 437.125/150
BEESAT 23 Jan 01:32:41 01:37:23 64° 73° (ENE) 01:42:06 436.000
SWISSCUBE 23 Jan 01:34:34 01:39:19 75° 74° (ENE) 01:44:06 437.505
YUBILEINY 23 Jan 01:35:00 01:43:38 62° 269° (W) 01:52:12 435.215
AUBIESAT-1 23 Jan 01:45:15 01:46:51 12° 58° (ENE) 01:48:24 437.475
CUSAT 1 23 Jan 01:45:23 01:50:01 28° 84° (E) 01:55:38 437.405
BEESAT 2 23 Jan 01:58:02 02:00:40 17° 249° (WSW) 02:03:17 435.950
Gurwin Techsat 1B 23 Jan 02:02:37 02:07:58 89° 103° (ESE) 02:13:17 435.225
PHONESAT 2.4 23 Jan 02:14:09 02:16:18 44° 176° (S) 02:18:26 2401.200-2431.200
ITAMSAT 1 23 Jan 02:15:52 02:20:04 24° 94° (E) 02:24:16 435.822/435.867
Cosmos 2491 23 Jan 02:25:20 02:33:54 61° 283° (WNW) 02:42:33 435.465 / 435.565
ISS 23 Jan 02:27:38 02:30:43 39° 26° (NNE) 02:33:47 145.825
PCSat 23 Jan 02:38:10 02:39:10 10° 329° (NNW) 02:40:12 145.827
ITUPSAT 1 23 Jan 02:38:23 02:42:32 30° 264° (W) 02:46:43 437.325
MOZHAYETS 4 23 Jan 02:40:37 02:45:12 87° 258° (WSW) 02:49:50
AIST 2 23 Jan 02:41:58 02:45:52 33° 49° (NE) 02:49:44 435.215
M-CUBED/EXP-1 PRIME 23 Jan 02:42:23 02:46:38 61° 69° (ENE) 02:50:35 437.505
AO-7 23 Jan 02:50:50 02:58:30 38° 98° (E) 03:06:05 29.400- 29.500
KKS-1 23 Jan 02:59:54 03:04:10 49° 72° (ENE) 03:08:28 437.445
Cosmos 2504 23 Jan 02:59:59 03:05:59 28° 276° (W) 03:11:51 435.465 / 435.565
DANDE 23 Jan 03:04:11 03:07:54 33° 87° (E) 03:12:44 436.750
Oscar 19 23 Jan 03:07:20 03:10:08 15° 301° (WNW) 03:12:57 437.125/150
BEESAT 23 Jan 03:13:09 03:15:35 14° 270° (W) 03:18:03 436.000
SWISSCUBE 23 Jan 03:15:55 03:17:38 12° 271° (W) 03:19:22 437.505
AUBIESAT-1 23 Jan 03:16:38 03:20:50 69° 253° (WSW) 03:24:46 437.475
CUSAT 1 23 Jan 03:26:11 03:31:29 46° 289° (WNW) 03:38:12 437.405
CUBESAT XI-V 23 Jan 03:34:02 03:38:37 53° 72° (ENE) 03:43:12 437.345
RS-15 23 Jan 03:34:19 03:44:01 26° 357° (N) 03:53:45 29.354- 29.394
YUBILEINY 23 Jan 03:36:46 03:38:27 11° 289° (WNW) 03:40:09 435.215
Gurwin Techsat 1B 23 Jan 03:44:37 03:47:09 14° 302° (WNW) 03:49:40 435.225
STARS 23 Jan 03:44:56 03:49:17 68° 74° (ENE) 03:53:38 437.465
PHONESAT 2.4 23 Jan 03:47:56 03:49:57 29° 193° (SSW) 03:51:57 2401.200-2431.200
ITAMSAT 1 23 Jan 03:54:47 03:59:42 43° 291° (WNW) 04:04:36 435.822/435.867
ISS 23 Jan 04:04:15 04:07:07 29° 223° (SW) 04:09:59 145.825
GOMX 1 23 Jan 04:19:00 04:20:12 11° 88° (E) 04:21:22 467.674
M-CUBED/EXP-1 PRIME 23 Jan 04:19:28 04:21:19 13° 262° (W) 04:23:07 437.505
AIST 2 23 Jan 04:20:39 04:24:14 27° 246° (WSW) 04:27:47 435.215
GONETS M04 23 Jan 04:27:38 04:32:32 16° 57° (ENE) 04:37:24
BRITE-PL 23 Jan 04:27:39 04:32:11 40° 97° (E) 04:36:22 437.365/2234.400
Cosmos 2491 23 Jan 04:29:42 04:32:55 12° 306° (NW) 04:36:09 435.465 / 435.565
KKS-1 23 Jan 04:38:14 04:41:00 16° 268° (W) 04:43:46 437.445
AO-7 23 Jan 04:43:26 04:51:26 51° 297° (WNW) 04:59:22 29.400- 29.500
DANDE 23 Jan 04:47:10 04:50:46 25° 296° (WNW) 04:55:19 436.750
STRAND 1 23 Jan 04:54:38 04:57:16 14° 59° (ENE) 04:59:55 437.568
Cosmos 2499 23 Jan 05:10:45 05:16:48 29° 69° (ENE) 05:22:46 435.465 / 435.565
CUBESAT XI-V 23 Jan 05:13:16 05:16:17 17° 269° (W) 05:19:19 437.345
STARS 23 Jan 05:24:43 05:26:05 11° 270° (W) 05:27:26 437.465
CUTE-I 23 Jan 05:26:23 05:30:52 27° 95° (E) 05:35:19 437.470
HORYU 2 23 Jan 05:35:42 05:40:11 88° 108° (ESE) 05:44:39 437.375
O/OREOS (USA 219) 23 Jan 05:45:33 05:50:02 85° 292° (WNW) 05:54:32 437.305
RS-15 23 Jan 05:50:13 06:01:29 38° 32° (NNE) 06:12:28 29.354- 29.394
GOMX 1 23 Jan 05:54:30 05:58:51 63° 286° (WNW) 06:02:58 467.674
BRITE-PL 23 Jan 06:06:43 06:10:21 22° 296° (WNW) 06:13:47 437.365/2234.400
NOAA 15 23 Jan 06:08:16 06:13:34 66° 102° (ESE) 06:18:49 137.62
Cubesat XI-IV 23 Jan 06:10:01 06:15:20 65° 102° (ESE) 06:20:39 437.490
DOVE 4 23 Jan 06:18:07 06:22:19 88° 110° (ESE) 06:26:27 437.250
CUTE 1.7 + AOD 2 23 Jan 06:19:01 06:19:58 11° 88° (E) 06:20:55 437.475
GONETS M04 23 Jan 06:22:16 06:31:09 72° 80° (E) 06:39:58
LilacSat-2 23 Jan 06:23:02 06:26:52 64° 285° (WNW) 06:30:43 437.200
STRAND 1 23 Jan 06:30:41 06:35:46 80° 258° (WSW) 06:40:55 437.568
NOAA 18 23 Jan 06:38:41 06:44:07 62° 102° (ESE) 06:49:31 137.9125
AO-7 23 Jan 06:39:01 06:42:15 13° 319° (NW) 06:45:30 29.400- 29.500
SO-50 23 Jan 06:43:15 06:47:49 51° 119° (ESE) 06:52:21 436.795
CANX-2 23 Jan 06:46:38 06:50:15 26° 94° (E) 06:53:51 2200.000
SEEDS 23 Jan 06:51:54 06:54:42 17° 92° (E) 06:57:28 437.485
COMPASS 1 23 Jan 06:52:54 06:53:58 11° 89° (E) 06:55:03 437.405
HO-68 23 Jan 06:58:11 07:04:46 38° 97° (E) 07:11:17 435.675
Cosmos 2499 23 Jan 07:03:25 07:10:13 50° 269° (W) 07:16:58 435.465 / 435.565
CUTE-I 23 Jan 07:06:02 07:11:01 41° 292° (WNW) 07:15:59 437.470
HORYU 2 23 Jan 07:15:09 07:16:01 11° 301° (WNW) 07:16:54 437.375
CINEMA 3 23 Jan 07:24:28 07:28:41 78° 286° (WNW) 07:33:01 145.822/145.860
PRISM 23 Jan 07:27:31 07:30:40 21° 66° (ENE) 07:33:50 437.425
O/OREOS (USA 219) 23 Jan 07:28:54 07:30:10 11° 312° (NW) 07:31:25 437.305
NOAA 15 23 Jan 07:49:16 07:52:48 18° 300° (WNW) 07:56:18 137.62
Cubesat XI-IV 23 Jan 07:51:18 07:54:54 19° 299° (WNW) 07:58:28 437.490
CUTE 1.7 + AOD 2 23 Jan 07:51:58 07:56:15 69° 286° (WNW) 08:00:31 437.475
PCSat 23 Jan 07:53:01 07:57:45 29° 48° (NE) 08:02:26 145.827
CUBEBUG 2 23 Jan 07:58:22 08:02:41 58° 100° (E) 08:07:07 437.445
RS-15 23 Jan 08:03:13 08:15:39 87° 239° (WSW) 08:27:34 29.354- 29.394
FUNcube-1 23 Jan 08:07:24 08:11:07 26° 95° (E) 08:14:51 145.935
UWE-3 23 Jan 08:20:12 08:24:34 63° 101° (E) 08:29:03 435.000/436.395/437.385
GONETS M04 23 Jan 08:20:22 08:27:04 25° 280° (W) 08:33:48
NOAA 18 23 Jan 08:20:27 08:24:17 20° 300° (WNW) 08:28:06 137.9125
CANX-2 23 Jan 08:22:21 08:26:04 29° 291° (WNW) 08:29:45 2200.000
SO-50 23 Jan 08:24:45 08:28:32 24° 317° (NW) 08:32:20 436.795
COMPASS 1 23 Jan 08:25:46 08:29:58 66° 285° (WNW) 08:34:06 437.405
SEEDS 23 Jan 08:26:33 08:30:36 42° 288° (WNW) 08:34:35 437.485
ZACube-1 23 Jan 08:31:54 08:36:13 51° 99° (E) 08:40:36 437.345
AAUSAT CUBESAT 2 23 Jan 08:33:49 08:38:00 70° 284° (WNW) 08:42:07 437.432
HO-68 23 Jan 08:45:50 08:52:32 44° 295° (WNW) 08:59:13 435.675
UNISAT 6 23 Jan 08:46:55 08:50:58 45° 72° (ENE) 08:55:03 437.425
TIGRISAT 23 Jan 08:59:08 09:03:17 57° 74° (ENE) 09:07:29 435.000
PRISM 23 Jan 09:01:57 09:05:45 34° 262° (W) 09:09:34 437.425
Oscar 11 23 Jan 09:02:29 09:06:52 90° 312° (NW) 09:11:14 145.826/435.025
ANTELSAT 23 Jan 09:15:06 09:19:21 88° 246° (WSW) 09:23:39 437.575/2403.000
DELFI C3 23 Jan 09:23:10 09:27:04 51° 100° (E) 09:30:55 145.870
JAS-2 23 Jan 09:33:27 09:38:39 49° 69° (ENE) 09:44:27 435.910
PCSat 23 Jan 09:36:08 09:41:20 47° 247° (WSW) 09:46:29 145.827
CUBEBUG 2 23 Jan 09:36:25 09:38:53 15° 296° (WNW) 09:41:22 437.445
QB50P1 23 Jan 09:37:03 09:39:39 16° 64° (ENE) 09:42:15 145.935-145.965
POLYITAN 1 23 Jan 09:41:57 09:44:49 18° 65° (ENE) 09:47:42 437.675
QB50P2 23 Jan 09:43:05 09:46:09 20° 66° (ENE) 09:49:13 145.880/145.840
FUNcube-1 23 Jan 09:43:27 09:47:19 31° 291° (WNW) 09:51:16 145.935
HUMSAT D 23 Jan 09:50:44 09:54:59 58° 100° (E) 09:59:14 437.325/437.525
UWE-3 23 Jan 09:58:17 10:00:33 14° 297° (WNW) 10:02:50 435.000/436.395/437.385
POPSAT HIP 1 23 Jan 10:03:06 10:06:43 29° 69° (ENE) 10:10:21 437.405
ZACube-1 23 Jan 10:09:17 10:12:07 17° 296° (WNW) 10:14:59 437.345
DUCHIFAT 1 23 Jan 10:09:49 10:13:26 29° 69° (ENE) 10:17:04 145.980
NANOSAT C BR1 23 Jan 10:16:47 10:20:40 38° 71° (ENE) 10:24:33 145.865
RS-15 23 Jan 10:17:37 10:26:19 24° 261° (W) 10:34:49 29.354- 29.394
UNISAT 6 23 Jan 10:25:20 10:27:56 16° 268° (W) 10:30:33 437.425
BY70-1 23 Jan 10:25:22 10:28:07 26° 96° (E) 10:30:42 436.1900
BUGSAT 1 23 Jan 10:32:09 10:35:00 19° 66° (ENE) 10:37:51 437.445
CUBEBUG 1 23 Jan 10:36:03 10:38:05 13° 90° (E) 10:40:08 437.445
TIGRISAT 23 Jan 10:38:34 10:40:22 12° 270° (W) 10:42:11 435.000
Cosmos 2491 23 Jan 10:39:49 10:44:39 15° 57° (ENE) 10:49:27 435.465 / 435.565
DELFI C3 23 Jan 10:59:23 11:01:26 14° 296° (WNW) 11:03:29 145.870
AISAT 23 Jan 11:00:31 11:03:12 16° 92° (E) 11:05:52 437.250
Oscar 19 23 Jan 11:06:57 11:10:13 17° 60° (ENE) 11:13:29 437.125/150
QB50P1 23 Jan 11:11:01 11:15:03 47° 261° (W) 11:19:07 145.935-145.965
POLYITAN 1 23 Jan 11:16:21 11:20:18 40° 262° (W) 11:24:17 437.675
QB50P2 23 Jan 11:17:49 11:21:42 36° 262° (W) 11:25:37 145.880/145.840
JAS-2 23 Jan 11:19:54 11:24:10 23° 270° (W) 11:28:45 435.910
HUMSAT D 23 Jan 11:27:50 11:30:07 14° 297° (WNW) 11:32:25 437.325/437.525
VELOX 1 23 Jan 11:32:42 11:36:40 32° 97° (E) 11:40:37 145.980
ESTCUBE 1 23 Jan 11:35:15 11:39:49 82° 285° (WNW) 11:44:20 437.505/2401.250
SPROUT 23 Jan 11:37:08 11:40:48 27° 96° (E) 11:44:27 437.525
POPSAT HIP 1 23 Jan 11:39:04 11:42:29 24° 265° (W) 11:45:55 437.405
DUCHIFAT 1 23 Jan 11:45:45 11:49:07 23° 265° (W) 11:52:30 145.980
Gurwin Techsat 1B 23 Jan 11:46:23 11:50:18 21° 62° (ENE) 11:54:14 435.225
UKube-1 23 Jan 11:47:25 11:50:08 16° 92° (E) 11:52:49 .
50 SAT 23 Jan 11:52:33 11:55:55 39° 99° (E) 11:59:14 437.505
NANOSAT C BR1 23 Jan 11:53:38 11:56:31 18° 267° (W) 11:59:26 145.865
DX 1 23 Jan 11:54:08 11:57:48 26° 96° (E) 12:01:26 434.975-435.025
BY70-1 23 Jan 11:56:13 11:58:05 15° 294° (WNW) 11:59:53 436.1900
AO-7 23 Jan 12:03:31 12:07:24 14° 43° (NE) 12:11:17 29.400- 29.500
BUGSAT 1 23 Jan 12:06:23 12:10:07 36° 262° (W) 12:13:52 437.445
CUBEBUG 1 23 Jan 12:10:29 12:14:44 57° 286° (WNW) 12:18:57 437.445
CUSAT 1 23 Jan 12:16:40 12:23:28 30° 65° (ENE) 12:29:45 437.405
AO-85 23 Jan 12:26:37 12:31:01 39° 117° (ESE) 12:35:07 145.980
Cosmos 2491 23 Jan 12:34:27 12:43:16 72° 80° (E) 12:52:04 435.465 / 435.565
AISAT 23 Jan 12:35:42 12:39:56 48° 288° (WNW) 12:44:08 437.250
YUBILEINY 23 Jan 12:41:02 12:48:35 34° 84° (E) 12:56:11 435.215
Oscar 19 23 Jan 12:43:48 12:48:58 68° 258° (WSW) 12:54:11 437.125/150
TISAT 1 23 Jan 12:53:24 12:56:56 26° 96° (E) 13:00:28 437.305
VELOX 1 23 Jan 13:09:26 13:12:58 24° 294° (WNW) 13:16:29 145.980
SPROUT 23 Jan 13:13:05 13:16:39 26° 292° (WNW) 13:20:12 437.525
UKube-1 23 Jan 13:22:16 13:26:24 46° 289° (WNW) 13:30:30 .
Gurwin Techsat 1B 23 Jan 13:24:39 13:29:50 54° 260° (W) 13:35:04 435.225
50 SAT 23 Jan 13:26:56 13:28:46 14° 295° (WNW) 13:30:36 437.505
DX 1 23 Jan 13:30:13 13:33:57 29° 292° (WNW) 13:37:40 434.975-435.025
BEESAT 23 Jan 13:33:19 13:36:07 15° 91° (E) 13:38:55 436.000
AIST 1 23 Jan 13:33:24 13:37:45 73° 279° (W) 13:42:05
ITAMSAT 1 23 Jan 13:34:21 13:39:10 40° 68° (ENE) 13:43:59 435.822/435.867
SWISSCUBE 23 Jan 13:34:57 13:38:13 18° 92° (E) 13:41:28 437.505
SO-50 23 Jan 13:35:31 13:36:50 11° 31° (NNE) 13:38:09 436.795
DANDE 23 Jan 13:38:23 13:45:57 44° 72° (ENE) 13:53:47 436.750
Cosmos 2504 23 Jan 13:43:59 13:52:01 45° 89° (E) 13:59:34 435.465 / 435.565
AO-7 23 Jan 13:50:17 13:58:22 56° 64° (ENE) 14:06:29 29.400- 29.500
CUSAT 1 23 Jan 13:58:06 14:05:59 65° 266° (W) 14:13:02 437.405
AO-85 23 Jan 14:07:35 14:11:30 27° 313° (NW) 14:15:12 145.980
O/OREOS (USA 219) 23 Jan 14:16:04 14:19:41 23° 56° (NE) 14:23:17 437.305
TISAT 1 23 Jan 14:28:59 14:32:31 27° 292° (WNW) 14:36:01 437.305
Cosmos 2491 23 Jan 14:32:33 14:39:13 25° 280° (W) 14:45:53 435.465 / 435.565
MOZHAYETS 4 23 Jan 14:35:31 14:39:03 21° 93° (E) 14:42:33
ITUPSAT 1 23 Jan 14:37:08 14:41:57 65° 102° (ESE) 14:46:43 437.325
